User: anonymous   Login
Location: La Pernelle
(49.6188°N, 1.2999°W)
Time: 15:41:11
(UTC+00:00)
Language:

SL-16 R/B - Orbit

View from above orbital plane
View from above orbital plane
View from above satellite
View from above satellite

Ground track
Ground track

The orbit data is extracted from the following two-line orbital elements,

1 31793U 07029B   21264.50338605  .00000105  00000-0  79777-4 0  9993
2 31793  70.9793 357.8527 0002659 277.6152  93.1510 14.14452983734924
Epoch (UTC): 21 September 2021 12:04:52
Eccentricity: 0.0002659
inclination: 70.9793°
perigee height: 842 km
apogee height: 846 km
right ascension of ascending node: 357.8527°
argument of perigee: 277.6152°
revolutions per day: 14.14452983
mean anomaly at epoch: 93.1510°
orbit number at epoch: 73492

The dashed part of the orbit path shows where the satellite is in the earth's shadow,  

DLR